Denver, CO

12:10 PM MDT on August 20, 2017 (GMT -0600)
Front Range

Weather History for KFTG - January, 2012

Change the Weather History Date:

Monday, January 9, 2012

  Actual Average (KBKF) Record (KBKF)
Temperature  
Mean Temperature 32 °F -  
Max Temperature 44 °F 42 °F 60 °F (2005)
Min Temperature 19 °F 20 °F 6 °F (1998)
Degree Days  
Heating Degree Days 34    
Moisture  
Dew Point 18 °F    
Average Humidity 57    
Maximum Humidity 80    
Minimum Humidity 42    
Precipitation  
Precipitation 0.00 in - - ()
Sea Level Pressure  
Sea Level Pressure 30.21 in    
Wind  
Wind Speed 7 mph (SW)    
Max Wind Speed 10 mph    
Max Gust Speed 16 mph    
Visibility 10 miles    
Events      
Averages and records for this station are not official NWS values.
T = Trace of Precipitation, MM = Missing Value Source: NWS Daily Summary

Daily Weather History Graph

Daily Weather History Graph

Search for Another Location

Airport or City:

Trip Planner

Search our weather history database for the weather conditions in past years. The results will help you decide how hot, cold, wet, or windy it might be!

Date:

Astronomy

Jan. 09, 2012 Rise Set
Actual Time 7:19 AM MST 4:51 PM MST
Civil Twilight 6:49 AM MST 5:21 PM MST
Nautical Twilight 6:15 AM MST 5:54 PM MST
Astronomical Twilight 5:43 AM MST 6:27 PM MST
Moon 5:40 PM MST (1/9) 7:21 AM MST (1/9)
Length of Visible Light 10h 31m
Length of Day
9h 31m
Full, 100% of the Moon is Illuminated
Jan 9
Full
Jan 16
Last Quarter
Jan 23
New
Jan 30
First Quarter
Feb 7
Full

Hourly Weather History & Observations

Time (MST) Temp. Windchill Dew Point Humidity Pressure Visibility Wind Dir Wind Speed Gust Speed Precip Events Conditions
12:05 AM 26.6 °F 17.5 °F 17.6 °F 69% 30.18 in 10.0 mi SSW 9.2 mph - N/A   Clear
12:25 AM 26.6 °F 19.1 °F 17.6 °F 69% 30.19 in 10.0 mi SW 6.9 mph - N/A   Clear
12:45 AM 23.0 °F 13.9 °F 15.8 °F 74% 30.18 in 10.0 mi SSW 8.1 mph - N/A   Clear
1:05 AM 24.8 °F 16.1 °F 15.8 °F 69% 30.18 in 10.0 mi SSW 8.1 mph - N/A   Clear
1:25 AM 19.4 °F 8.6 °F 14.0 °F 80% 30.19 in 10.0 mi SSW 9.2 mph - N/A   Clear
1:45 AM 21.2 °F 10.9 °F 15.8 °F 80% 30.19 in 10.0 mi SSW 9.2 mph - N/A   Clear
2:04 AM 21.2 °F 11.7 °F 14.0 °F 74% 30.19 in 10.0 mi SSW 8.1 mph - N/A   Clear
2:25 AM 24.8 °F 14.6 °F 15.8 °F 69% 30.20 in 10.0 mi SSW 10.4 mph - N/A   Clear
2:45 AM 26.6 °F 17.5 °F 14.0 °F 59% 30.20 in 10.0 mi SSW 9.2 mph - N/A   Clear
3:04 AM 23.0 °F 13.9 °F 14.0 °F 68% 30.20 in 10.0 mi SSW 8.1 mph - N/A   Clear
3:25 AM 21.2 °F 12.6 °F 14.0 °F 74% 30.20 in 10.0 mi South 6.9 mph - N/A   Clear
3:45 AM 21.2 °F 13.6 °F 14.0 °F 74% 30.20 in 10.0 mi South 5.8 mph - N/A   Clear
4:05 AM 21.2 °F 12.6 °F 14.0 °F 74% 30.21 in 10.0 mi SSW 6.9 mph - N/A   Clear
4:25 AM 21.2 °F 16.4 °F 14.0 °F 74% 30.21 in 10.0 mi SSW 3.5 mph - N/A   Clear
4:45 AM 21.2 °F 13.6 °F 14.0 °F 74% 30.22 in 10.0 mi SSW 5.8 mph - N/A   Clear
5:04 AM 26.6 °F 18.2 °F 12.2 °F 55% 30.23 in 10.0 mi SW 8.1 mph - N/A   Clear
5:25 AM 26.6 °F 17.5 °F 12.2 °F 55% 30.23 in 10.0 mi SW 9.2 mph - N/A   Clear
5:45 AM 26.6 °F 18.2 °F 12.2 °F 55% 30.24 in 10.0 mi SSW 8.1 mph - N/A   Clear
6:05 AM 26.6 °F 18.2 °F 12.2 °F 55% 30.24 in 10.0 mi SW 8.1 mph - N/A   Clear
6:25 AM 26.6 °F 17.5 °F 12.2 °F 55% 30.24 in 10.0 mi SW 9.2 mph - N/A   Clear
6:45 AM 26.6 °F 17.5 °F 12.2 °F 55% 30.24 in 10.0 mi SW 9.2 mph - N/A   Clear
7:05 AM 28.4 °F 19.7 °F 12.2 °F 51% 30.24 in 10.0 mi SW 9.2 mph - N/A   Clear
7:25 AM 26.6 °F 16.8 °F 12.2 °F 55% 30.25 in 10.0 mi WSW 10.4 mph - N/A   Clear
7:45 AM 26.6 °F 16.8 °F 12.2 °F 55% 30.25 in 10.0 mi SW 10.4 mph - N/A   Clear
8:05 AM 28.4 °F 19.1 °F 14.0 °F 55% 30.26 in 10.0 mi SW 10.4 mph - N/A   Clear
8:25 AM 30.2 °F 21.3 °F 14.0 °F 51% 30.26 in 10.0 mi SW 10.4 mph 16.1 mph N/A   Clear
8:45 AM 32.0 °F 23.6 °F 14.0 °F 48% 30.26 in 10.0 mi SW 10.4 mph - N/A   Clear
9:25 AM 33.8 °F 27.0 °F 17.6 °F 52% 30.26 in 10.0 mi SW 8.1 mph - N/A   Clear
9:45 AM 35.6 °F 29.2 °F 19.4 °F 52% 30.26 in 10.0 mi SW 8.1 mph - N/A   Clear
10:05 AM 37.4 °F 32.8 °F 21.2 °F 52% 30.26 in 10.0 mi SW 5.8 mph - N/A   Clear
10:25 AM 37.4 °F 31.4 °F 21.2 °F 52% 30.26 in 10.0 mi SW 8.1 mph - N/A   Clear
10:45 AM 39.2 °F 33.6 °F 21.2 °F 49% 30.25 in 10.0 mi SW 8.1 mph - N/A   Clear
11:05 AM 41.0 °F 35.8 °F 21.2 °F 45% 30.24 in 10.0 mi SW 8.1 mph - N/A   Clear
11:25 AM 41.0 °F 36.4 °F 23.0 °F 49% 30.23 in 10.0 mi SW 6.9 mph - N/A   Clear
11:45 AM 42.8 °F 39.3 °F 23.0 °F 46% 30.23 in 10.0 mi SW 5.8 mph - N/A   Clear
12:05 PM 42.8 °F 39.3 °F 23.0 °F 46% 30.22 in 10.0 mi SW 5.8 mph - N/A   Clear
12:25 PM 42.8 °F 39.3 °F 21.2 °F 42% 30.20 in 10.0 mi WSW 5.8 mph - N/A   Clear
12:45 PM 42.8 °F - 21.2 °F 42% 30.20 in 10.0 mi Calm Calm - N/A   Clear
1:05 PM 42.8 °F - 21.2 °F 42% 30.19 in 10.0 mi Calm Calm - N/A   Clear
1:45 PM 44.6 °F - 23.0 °F 43% 30.18 in 10.0 mi Calm Calm - N/A   Clear
2:05 PM 44.6 °F 43.1 °F 24.8 °F 46% 30.18 in 10.0 mi NW 3.5 mph - N/A   Clear
2:25 PM 44.6 °F - 23.0 °F 43% 30.17 in 10.0 mi Calm Calm - N/A   Clear
2:45 PM 44.6 °F - 23.0 °F 43% 30.18 in 10.0 mi Calm Calm - N/A   Clear
3:05 PM 44.6 °F - 23.0 °F 43% 30.19 in 10.0 mi Calm Calm - N/A   Clear
3:25 PM 44.6 °F - 23.0 °F 43% 30.19 in 10.0 mi Calm Calm - N/A   Clear
3:45 PM 44.6 °F - 23.0 °F 43% 30.18 in 10.0 mi Calm Calm - N/A   Clear
4:05 PM 42.8 °F 41.1 °F 23.0 °F 46% 30.19 in 10.0 mi SW 3.5 mph - N/A   Clear
4:25 PM 41.0 °F 38.0 °F 24.8 °F 53% 30.19 in 10.0 mi SW 4.6 mph - N/A   Clear
4:45 PM 39.2 °F 35.0 °F 26.6 °F 61% 30.19 in 10.0 mi SW 5.8 mph - N/A   Clear
5:05 PM 37.4 °F 32.1 °F 26.6 °F 65% 30.19 in 10.0 mi SSW 6.9 mph - N/A   Clear
5:25 PM 37.4 °F 32.1 °F 26.6 °F 65% 30.18 in 10.0 mi SW 6.9 mph - N/A   Clear
5:45 PM 37.4 °F 31.4 °F 26.6 °F 65% 30.19 in 10.0 mi SSW 8.1 mph - N/A   Clear
6:05 PM 33.8 °F 27.0 °F 26.6 °F 75% 30.19 in 10.0 mi SSW 8.1 mph - N/A   Clear
6:25 PM 37.4 °F 31.4 °F 26.6 °F 65% 30.18 in 10.0 mi SSW 8.1 mph - N/A   Clear
6:45 PM 33.8 °F 27.0 °F 26.6 °F 75% 30.18 in 10.0 mi SSW 8.1 mph - N/A   Clear
7:05 PM 32.0 °F 25.6 °F 26.6 °F 80% 30.18 in 10.0 mi SSW 6.9 mph - N/A   Clear
7:25 PM 32.0 °F 24.8 °F 26.6 °F 80% 30.19 in 10.0 mi SSW 8.1 mph - N/A   Clear
7:45 PM 35.6 °F 28.6 °F 26.6 °F 70% 30.19 in 10.0 mi SSW 9.2 mph - N/A   Clear
8:05 PM 32.0 °F 24.2 °F 26.6 °F 80% 30.18 in 10.0 mi SSW 9.2 mph - N/A   Clear
8:25 PM 32.0 °F 24.8 °F 26.6 °F 80% 30.19 in 10.0 mi SSW 8.1 mph - N/A   Clear
8:45 PM 30.2 °F 22.6 °F 26.6 °F 86% 30.18 in 10.0 mi South 8.1 mph - N/A   Clear
9:05 PM 32.0 °F 25.6 °F 26.6 °F 80% 30.17 in 10.0 mi SSW 6.9 mph - N/A   Clear
9:25 PM 30.2 °F 24.3 °F 26.6 °F 86% 30.18 in 10.0 mi South 5.8 mph - N/A   Clear
9:44 PM 30.2 °F 22.6 °F 26.6 °F 86% 30.17 in 10.0 mi SSW 8.1 mph - N/A   Clear
10:05 PM 30.2 °F 23.4 °F 26.6 °F 86% 30.17 in 10.0 mi South 6.9 mph - N/A   Clear
10:25 PM 32.0 °F 24.2 °F 26.6 °F 80% 30.16 in 10.0 mi SSW 9.2 mph - N/A   Clear
10:45 PM 32.0 °F 25.6 °F 26.6 °F 80% 30.14 in 10.0 mi SSW 6.9 mph - N/A   Clear
11:05 PM 30.2 °F 21.9 °F 24.8 °F 80% 30.14 in 10.0 mi South 9.2 mph - N/A   Clear
11:25 PM 30.2 °F 24.3 °F 24.8 °F 80% 30.14 in 10.0 mi SSW 5.8 mph - N/A   Clear
11:45 PM 28.4 °F 21.2 °F 24.8 °F 86% 30.14 in 10.0 mi South 6.9 mph - N/A   Clear